Regional Weather Roundup
Issued by NWS

Home | Current Version | Previous Version | Graphics & Text | Print | Product List | Glossary On
Versions: 1 2 3 4 5 6 7 8 9 10 11 12 13 14 15 16 17 18 19 20 21 22 23 24 25 26 27 28 29 30 31 32 33 34 35 36 37 38 39 40 41 42 43 44 45 46 47 48 49 50
000
ASUS43 KTOP 241259
RWRKS

WEATHER ROUNDUP FOR KANSAS
NATIONAL WEATHER SERVICE GOODLAND KS
800 AM CDT FRI MAR 24 2017

NOTE:  "FAIR" INDICATES FEW OR NO CLOUDS BELOW 12,000 FEET WITH NO
SIGNIFICANT WEATHER AND/OR OBSTRUCTIONS TO VISIBILITY.

KSZ001>006-013>018-027>032-041>047-241400-
NORTHWEST KANSAS

CITY           SKY/WX    TMP DP  RH WIND       PRES   REMARKS
GOODLAND       TSTM      45  45 100 NE38G49   29.65R FOG
HAYS             N/A     53  44  71 E7        29.68R
HILL CITY      MOCLDY    55  54  96 NE16G28   29.68R
RUSSELL        CLOUDY    61  43  51 S14       29.66R
$$

KSZ061>065-074>080-084>089-241400-
SOUTHWEST KANSAS

CITY           SKY/WX    TMP DP  RH WIND       PRES   REMARKS
DODGE CITY     CLEAR     43  37  79 SE10      29.65R
ELKHART          N/A     41  28  60 SE12        N/A
GARDEN CITY    CLEAR     42  35  76 SE12      29.60R
GREAT BEND     PTCLDY    57  40  52 S15       29.69R
LIBERAL        CLEAR     45  28  53 SE6       29.54R
$$

KSZ066>073-081>083-090>101-241400-
SOUTHEAST KANSAS

CITY           SKY/WX    TMP DP  RH WIND       PRES   REMARKS
CHANUTE        CLOUDY    66  44  45 S21G30    29.81R
COFFEYVILLE    CLOUDY    67  48  50 S22G33    29.82S
HUTCHINSON     CLEAR     64  47  53 S24G33    29.68R
MEDICINE LODGE   N/A     60  39  45 S14G24    29.67R
NEWTON         PTCLDY    62  45  53 S21       29.72R
PARSONS        CLOUDY    67  46  47 S21G30    29.83R
WICHITA INTL   PTCLDY    64  49  57 S18       29.71R
WICHITA JABRA  CLEAR     63  47  55 S18       29.72R
WINFIELD       CLOUDY    65  49  56 S21       29.76R
$$

KSZ007>012-019>026-033>040-048>060-102>105-241400-
NORTHEAST KANSAS

CITY           SKY/WX    TMP DP  RH WIND       PRES   REMARKS
CONCORDIA      MOCLDY    61  45  55 S9        29.72R
EMPORIA        CLOUDY    66  45  46 S25G32    29.74R
LAWRENCE       CLOUDY    67  43  41 SE14G24   29.78R
MANHATTAN      CLOUDY    68  43  40 S17G25    29.72R
OLATHE IND     CLOUDY    65  42  43 S21G32    29.79S
OLATHE EXE     CLOUDY    66  42  41 S20G32    29.79S
SALINA         CLOUDY    67  44  43 S16G26    29.68R
TOPEKA BILLARD CLOUDY    67  44  43 S12       29.76R
TOPEKA FORBES  CLOUDY    68  42  38 S18G26    29.74R
$$



USA.gov is the U.S. government's official web portal to all federal, state and local government web resources and services.